PEGASUS DEB, 29033

Orbit data source: Space-Track

PEGASUS DEB, 29033 is space debris in LEO originally from a launch on Thu, 19 May 1994 UTC launched from the Air Force Western Test Range (AFWTR). Debris objects in space refer to the collection of defunct objects orbiting the Earth. Examples of debris include non-operational satellites, rocket bodies, and fragments generated from explosions, collisions, or faulty payload assembly.

Loading next visibility...
Identifier
29033, 1994-029AEQ
Orbit
LEO
Country
Flag of USUS
Related business
Manufacturer
Unknown
Mission
Spacecraft
Bus & Motor
Unknown
Mass
Unknown
Launch date (UTC)
1994-05-19 (32 years ago)
Launch vehicle
Unknown
Launch site
Air Force Western Test Range (AFWTR)
Object type
Payload
Rocket body
Debris
Shape & HBR
Unknown shape, 0.1 m
Radar Cross Section
Small (<0.1 m²)

Expand to show TLE details & history
Last TLE update: 12 hours ago

TLE from 12 hours ago
0 PEGASUS DEB
1 29033U 94029AEQ 26236.44461976  .00005473  00000-0  68408-3 0  9999
2 29033  81.9574 240.6221 0154751 171.3683 189.0247 14.73970448239172
Epoch: 2026-08-24T10:40Z
TLE epoch observation values (Epoch: 2026-08-24T10:40:15.147Z)
Latitude
0.00001°
Longitude
107.83276°
Altitude
758.885 km
Speed
7.418 km/s
True Right ascension
16h 02m 29s
True Declination
0° 00' 00"
Sunlit
Object was in daylight at epoch
Visualization orbit readout
Latitude
Unknown
Longitude
Unknown
Altitude
Unknown
Speed
Unknown
Apparent Right ascension
Unknown
Apparent Declination
Unknown
Sunlit
N/A
Visualization observer readout
Local Sidereal Time
13:29:23
Azimuth
Unknown
Elevation
Unknown
Doppler factor
Unknown
Orbital elements
Apogee altitude
754.167 km
Perigee altitude
536.785 km
Semi-major axis
7,023.613 km
Eccentricity
0.01548
Inclination
81.9574°
RAAN
240.6221°
Arg. of periapsis
171.3683°
True anomaly
188.75176°
Mean anomaly
189.0247°
Eccentric anomaly
188.88771°
Mean motion
3.68725 °/min
Orbital period
97.63 mins
BSTAR
0.00068408
Loading maneuver chart data...
Computing Atmospheric mass density...

Documentation

Showing up to 5 results
|